TimeCDT,TemperatureF,Dew PointF,Humidity,Sea Level PressureIn,VisibilityMPH,Wind Direction,Wind SpeedMPH,Gust SpeedMPH,PrecipitationIn,Events,Conditions,WindDirDegrees,DateUTC
12:52 AM,73.4,69.8,88,29.93,10.0,SSW,4.6,-,N/A,,Overcast,200,2013-05-19 05:52:00
12:54 AM,73.9,70.0,87,30.00,10.0,Variable,3.5,-,N/A,,Overcast,0,2013-05-19 05:54:00
1:54 AM,73.9,70.0,87,29.98,10.0,Variable,3.5,-,N/A,,Overcast,0,2013-05-19 06:54:00
2:54 AM,73.9,70.0,87,29.98,10.0,Variable,3.5,-,N/A,,Overcast,0,2013-05-19 07:54:00
3:36 AM,73.4,69.8,88,29.91,10.0,Calm,Calm,-,N/A,,Overcast,0,2013-05-19 08:36:00
3:54 AM,73.9,70.0,87,30.00,10.0,Variable,3.5,-,N/A,,Mostly Cloudy,0,2013-05-19 08:54:00
4:25 AM,73.4,69.8,88,29.92,10.0,Calm,Calm,-,N/A,,Scattered Clouds,0,2013-05-19 09:25:00
4:54 AM,73.9,69.1,85,29.99,10.0,Calm,Calm,-,N/A,,Partly Cloudy,0,2013-05-19 09:54:00
5:44 AM,73.4,69.8,88,29.92,10.0,Calm,Calm,-,N/A,,Mostly Cloudy,0,2013-05-19 10:44:00
5:54 AM,73.9,70.0,87,29.99,10.0,Variable,3.5,-,N/A,,Overcast,0,2013-05-19 10:54:00
6:16 AM,73.4,69.8,88,29.92,10.0,Calm,Calm,-,N/A,,Scattered Clouds,0,2013-05-19 11:16:00
6:54 AM,73.9,70.0,87,29.99,10.0,Variable,4.6,-,N/A,,Scattered Clouds,0,2013-05-19 11:54:00
7:03 AM,75.2,69.8,83,29.91,10.0,Variable,3.5,-,N/A,,Mostly Cloudy,0,2013-05-19 12:03:00
7:13 AM,75.2,69.8,83,29.92,10.0,Variable,4.6,-,N/A,,Overcast,0,2013-05-19 12:13:00
7:54 AM,75.9,70.0,82,29.99,10.0,SSW,6.9,-,N/A,,Overcast,200,2013-05-19 12:54:00
8:13 AM,75.2,69.8,83,29.92,10.0,Variable,6.9,-,N/A,,Overcast,0,2013-05-19 13:13:00
8:54 AM,77.0,70.0,79,30.01,10.0,Variable,5.8,-,N/A,,Overcast,0,2013-05-19 13:54:00
9:33 AM,80.6,71.6,74,29.94,10.0,Variable,4.6,-,N/A,,Scattered Clouds,0,2013-05-19 14:33:00
9:43 AM,82.4,69.8,66,29.94,10.0,Variable,4.6,21.9,N/A,,Mostly Cloudy,0,2013-05-19 14:43:00
9:54 AM,82.9,70.0,65,30.01,10.0,Variable,5.8,-,N/A,,Mostly Cloudy,0,2013-05-19 14:54:00
10:27 AM,82.4,69.8,66,29.93,10.0,South,10.4,21.9,N/A,,Scattered Clouds,170,2013-05-19 15:27:00
10:52 AM,84.2,69.8,62,29.94,10.0,South,9.2,-,N/A,,Mostly Cloudy,170,2013-05-19 15:52:00
10:54 AM,84.0,69.1,61,30.01,10.0,Variable,6.9,-,N/A,,Scattered Clouds,0,2013-05-19 15:54:00
11:54 AM,86.0,70.0,59,30.00,10.0,Variable,6.9,-,N/A,,Mostly Cloudy,0,2013-05-19 16:54:00
12:54 PM,88.0,69.1,53,29.99,10.0,SSW,10.4,16.1,N/A,,Scattered Clouds,200,2013-05-19 17:54:00
1:54 PM,89.1,68.0,50,29.98,10.0,Variable,4.6,16.1,N/A,,Scattered Clouds,0,2013-05-19 18:54:00
2:54 PM,88.0,66.9,49,29.97,10.0,Variable,5.8,-,N/A,,Scattered Clouds,0,2013-05-19 19:54:00
3:54 PM,90.0,69.1,50,29.96,10.0,Variable,4.6,-,N/A,,Scattered Clouds,0,2013-05-19 20:54:00
4:54 PM,87.1,68.0,53,29.94,10.0,South,9.2,-,N/A,,Scattered Clouds,170,2013-05-19 21:54:00
5:54 PM,87.1,69.1,55,29.93,10.0,Variable,5.8,17.3,N/A,,Partly Cloudy,0,2013-05-19 22:54:00
6:54 PM,82.9,69.1,63,29.93,10.0,Variable,5.8,-,N/A,,Clear,0,2013-05-19 23:54:00
7:54 PM,81.0,70.0,69,29.94,10.0,Variable,6.9,-,N/A,,Clear,0,2013-05-20 00:54:00
8:54 PM,79.0,71.1,77,29.95,10.0,Variable,3.5,-,N/A,,Clear,0,2013-05-20 01:54:00
9:54 PM,78.1,72.0,81,29.96,10.0,Variable,5.8,-,N/A,,Clear,0,2013-05-20 02:54:00
10:32 PM,78.8,71.6,78,29.90,10.0,Variable,3.5,-,N/A,,Mostly Cloudy,0,2013-05-20 03:32:00
10:54 PM,78.1,72.0,81,29.98,10.0,Variable,6.9,-,N/A,,Overcast,0,2013-05-20 03:54:00
11:26 PM,78.8,71.6,78,29.90,10.0,Variable,5.8,-,N/A,,Overcast,0,2013-05-20 04:26:00
11:54 PM,78.1,72.0,81,29.98,10.0,Variable,3.5,-,N/A,,Overcast,0,2013-05-20 04:54:00